#timestamp,LO_Frequency,Hit,StdDev 
1586106015.6,286047000.9,N
1586106035.4,286046999.4,N
1586106055.3,286046995.3,Y
1586106075.1,286046995.9,P
1586106095.9,286046997.6,N
1586106115.7,286046999.2,N
1586106135.5,286046998.1,N
1586106155.4,286046998.3,N
1586106175.2,286046998.7,N
1586106195.0,286046996.7,N
1586106195.9,286046996.7,N
1586106215.8,286046999.1,N
1586106235.6,286046999.1,N
1586106255.5,286046996.9,N
1586106275.3,286046999.6,N
1586106295.1,286046996.7,N
1586106315.9,286046997.9,N
1586106335.7,286046999.5,N
1586106355.6,286046998.4,N
1586106375.4,286046998.7,N
1586106395.2,286047000.7,N
1586106415.1,286047000.5,N
1586106416.0,286047000.5,N
1586106435.8,286047000.0,N
1586106455.6,286047000.4,N
1586106475.5,286047000.1,N
1586106495.3,286047000.3,N
1586106515.2,286047001.0,N
1586106535.9,286047001.1,N
1586106555.7,286046999.1,N
1586106575.6,286046996.7,N
1586106595.4,286046997.3,N
1586106615.2,286046998.5,N
1586106635.1,286047001.1,N
1586106636.0,286047001.1,N
1586106655.8,286046998.4,N
1586106675.7,286047001.2,N
1586106695.5,286046999.5,N
1586106715.3,286046996.7,N
1586106735.2,286046997.0,N
1586106755.0,286046997.0,N
1586106755.9,286046997.0,N
1586106775.8,286046998.5,N
1586106795.6,286046996.7,N
1586106815.4,286046997.4,N
1586106835.3,286046995.5,N
1586106855.1,286046995.6,N
1586106875.8,286046996.1,N
1586106895.7,286046997.9,N
1586106915.5,286046998.8,N
1586106935.4,286046999.4,N
1586106955.2,286046998.8,N
1586106975.0,286047000.3,N
1586106975.9,286047000.3,N
1586106995.8,286046998.6,N
1586107015.6,286046997.6,N
1586107035.4,286046998.0,N
1586107055.3,286046998.2,N
1586107075.1,286046997.5,N
1586107095.9,286046998.8,N
1586107115.7,286046995.7,N
1586107135.5,286046996.2,N
1586107155.4,286046995.7,N
1586107175.2,286046997.5,N
1586107195.1,286046996.2,N
1586107196.0,286046996.2,N
1586107215.8,286046994.9,Y
1586107235.6,286046999.3,P
1586107255.5,286046998.6,N
1586107275.3,286047002.6,P
1586107295.2,286047001.9,N
1586107315.9,286047003.8,N
1586107335.7,286047003.8,N
1586107355.6,286047004.0,N
1586107375.4,286047003.3,N
1586107395.3,286047005.6,N
1586107415.1,286047003.8,N
1586107416.0,286047003.8,N
1586107435.8,286047003.9,N
1586107455.7,286047005.3,N
1586107475.5,286047004.8,N
1586107495.3,286047003.4,N
1586107515.2,286047005.8,N
1586107535.0,286047001.4,N
1586107535.9,286047001.4,N
1586107555.8,286047002.0,N
1586107575.6,286047003.8,N
1586107595.4,286047002.5,N
1586107615.3,286047002.0,N
1586107635.1,286047001.4,N
1586107655.9,286047000.4,N
1586107675.7,286047004.0,N
1586107695.5,286047005.9,N
1586107715.4,286047002.6,N
1586107735.2,286047002.8,N
1586107755.0,286047001.5,N
1586107755.9,286047001.5,N
1586107775.8,286047000.6,N
1586107795.6,286047000.5,N
1586107815.5,286047000.6,N
1586107835.3,286046999.7,N
1586107855.1,286047003.5,N
1586107875.9,286047004.2,N
1586107895.7,286047002.3,N
1586107915.6,286047000.1,N
1586107935.4,286047001.6,N
1586107955.2,286047000.2,N
1586107975.1,286047002.6,N
1586107976.0,286047002.6,N
1586107995.8,286046998.6,N
1586108015.6,286046999.6,N
1586108035.5,286046998.7,N
1586108055.3,286046997.3,N
1586108075.2,286046997.0,N
1586108095.9,286046996.5,N
1586108115.7,286046996.6,N
1586108135.6,286046996.6,N
1586108155.4,286046998.5,N
1586108175.3,286046996.5,N
1586108195.1,286046997.4,N
1586108196.0,286046997.4,N
1586108215.8,286046994.9,N
1586108235.7,286046994.9,N
1586108255.5,286046994.9,N
1586108275.3,286046996.1,N
1586108295.2,286046995.8,N
1586108315.0,286046993.4,N
1586108315.9,286046993.4,N
1586108335.8,286046996.2,N
1586108355.6,286046995.9,N
1586108375.4,286046993.3,N
1586108395.3,286046996.1,N
1586108415.1,286046996.4,N
1586108435.8,286046996.0,N
1586108455.7,286046996.1,N
1586108475.5,286046995.9,N
1586108495.4,286046991.9,Y
1586108515.2,286046995.1,P
1586108535.0,286046997.6,N
1586108535.9,286046997.6,N
1586108555.8,286046995.4,Y
1586108575.6,286046998.5,P
1586108595.5,286046999.2,N
1586108615.3,286046997.4,N
1586108635.1,286046997.3,N
1586108655.9,286046997.1,Y
1586108675.7,286046998.7,P
1586108695.6,286046998.2,P
1586108715.4,286047000.8,N
1586108735.2,286047001.0,N
1586108755.1,286047001.0,N
1586108756.0,286047001.0,N
1586108775.8,286046996.5,N
1586108795.6,286046996.7,N
1586108815.5,286046997.9,N
1586108835.3,286046997.8,N
1586108855.2,286046997.9,N
1586108875.9,286046993.8,Y
1586108895.7,286046995.0,P
1586108915.6,286046997.8,N
1586108935.4,286046995.1,P
1586108955.3,286046995.8,N
1586108975.1,286046993.7,Y
1586108976.0,286046993.7,P
1586108995.8,286046998.8,N
1586109015.7,286046999.3,N
1586109035.5,286047001.1,N
1586109055.4,286047000.7,N
1586109075.2,286047000.4,N
1586109095.0,286047000.6,N
1586109095.9,286047000.6,N
1586109115.8,286046998.6,N
1586109135.6,286046996.6,N
1586109155.4,286046999.5,N
1586109175.3,286046998.7,N
1586109195.1,286046999.3,N
1586109215.9,286047000.7,N
1586109235.7,286046998.6,N
1586109255.5,286046998.9,N
1586109275.4,286046999.4,N
1586109295.2,286046998.6,N
1586109315.1,286047001.0,N
1586109316.0,286047001.0,N
1586109335.8,286047000.7,N
1586109355.6,286046999.0,N
1586109375.5,286046998.3,N
1586109395.3,286046999.5,N
1586109415.1,286046997.0,N
1586109435.9,286046997.3,N
1586109455.7,286046999.0,N
1586109475.6,286047002.2,N
1586109495.4,286047002.5,N
1586109515.2,286047001.9,N
1586109535.1,286047002.1,N
1586109536.0,286047002.1,N
1586109555.8,286047000.1,N
1586109575.6,286047000.9,N
1586109595.5,286046999.8,N
